Flag for Brazil

Past Weather in Barreiras, Bahia, Brazil — Yesterday and Last 2 Weeks

Now
72 °F

Haze.


Feels Like: 77 °F
Forecast: 100 / 65 °F
Wind: 1 mph from Northwest

Location: Brasilia Aeroporto
Current Time: Sep 21, 2020 at 7:39:56 am
Latest Report: Sep 21, 2020 at 7:00 am
Visibility: 3 mi
Pressure30.07 "Hg
Humidity: 53%
Dew Point: 54 °F
Location of BarreirasLocation

Past Weather in Barreiras — Graph

°F

Barreiras Temperature Yesterday

Maximum temperature yesterday: 95 °F (at 3:00 pm)
Minimum temperature yesterday: 61 °F (at 4:00 am)
Average temperature yesterday: 82 °F

High & Low Weather Summary for the Past Weeks

 TemperatureHumidityPressure
High95 °F (Sep 19, 2:00 pm)77% (Sep 7, 7:00 am)30.30 "Hg (Sep 7, 7:00 am)
Low57 °F (Sep 11, 6:00 am)15% (Sep 11, 1:00 pm)29.95 "Hg (Sep 20, 3:00 pm)
Average76 °F40%30.11 "Hg
* Reported Sep 6 6:00 am — Sep 21 6:00 am, Barreiras. Weather by CustomWeather, © 2020

Note: Actual official high and low records may vary slightly from our data, if they occured in-between our weather recording intervals... More about our weather records

Barreiras Weather History for the Previous 24 Hours

Scroll right to see more
 ConditionsComfort  
Time TempWeatherWind HumidityBarometerVisibility
6:00 am
Mon, Sep 21
66 °FLight fog.2 mph60%30.04 "Hg3 mi
5:00 am73 °FClear.8 mph47%30.01 "Hg10 mi
4:00 am72 °FClear.2 mph53%29.98 "Hg10 mi
3:00 am75 °FPassing clouds.3 mph50%30.01 "HgN/A
2:00 am79 °FClear.No wind39%30.01 "Hg10 mi
1:00 am77 °FClear.2 mph47%30.01 "Hg10 mi
12:00 am81 °FClear.No wind37%30.04 "Hg10 mi
11:00 pm
Sun, Sep 20
81 °FClear.2 mph34%30.04 "Hg10 mi
10:00 pm84 °FClear.3 mph29%30.04 "Hg10 mi
9:00 pm84 °FClear.No wind29%30.01 "Hg10 mi
8:00 pm88 °FClear.7 mph24%29.98 "Hg10 mi
7:00 pm88 °FClear.5 mph24%29.98 "Hg10 mi
6:00 pm91 °FSunny.6 mph20%29.95 "Hg10 mi
5:00 pm93 °FSunny.6 mph19%29.95 "Hg10 mi
4:00 pm93 °FScattered clouds.6 mph17%29.95 "HgN/A
3:00 pm95 °FScattered clouds.8 mph16%29.95 "HgN/A
2:00 pm93 °FScattered clouds.8 mph20%29.98 "HgN/A
1:00 pm93 °FScattered clouds.7 mph20%30.01 "HgN/A
12:00 pm93 °FPassing clouds.12 mph20%30.04 "HgN/A
11:00 am91 °FSunny.6 mph23%30.07 "Hg10 mi
10:00 am88 °FSunny.7 mph29%30.09 "Hg10 mi
9:00 am84 °FSunny.5 mph31%30.09 "Hg10 mi
8:00 am75 °FScattered clouds.No wind50%30.09 "HgN/A
7:00 am66 °FScattered clouds.3 mph64%30.07 "HgN/A
Weather by CustomWeather, © 2020

See weather overview